Preview of NWS' New Version of Forecast
This preview is not operational and should not be used for support decisions.

Regional Weather Roundup (RWR)

Issued by National Weather Service (NWS)

                            
000
ASUS45 KBOU 230410
RWRCO 

WEATHER ROUNDUP FOR COLORADO
NATIONAL WEATHER SERVICE DENVER/BOULDER CO
900 PM MST FRI FEB 22 2019

NOTE: "FAIR" INDICATES FEW OR NO CLOUDS BELOW 12000 FEET WITH NO
SIGNIFICANT WEATHER AND/OR OBSTRUCTIONS TO VISIBILITY.

COZ001>005-013-030-031-230500-
...NORTHWEST COLORADO...
  
CITY           SKY/WX    TMP DP  RH WIND       PRES   REMARKS
CRAIG          CLOUDY    15   9  76 W5        29.88R WCI   8          
HAYDEN         FAIR      13   8  81 W7        29.87R WCI   3          
MEEKER         CLOUDY    20  12  71 CALM      29.84S                  
RANGELY        FAIR      20   9  64 E10       29.90S WCI   8          
RABBIT EARS PA CLOUDY     9   7  92 NW10      29.70R WCI  -6          
STEAMBOAT SPGS CLOUDY    15  13  90 CALM      29.84R                  
WALDEN         CLOUDY    12   7  79 N15       29.76R WCI  -4          
$$

COZ006>008-011-230500-
...WEST CENTRAL VALLEYS...
  
CITY           SKY/WX    TMP DP  RH WIND       PRES   REMARKS
GRAND JUNCTION LGT SNOW  29  25  85 W7        29.84R FOG     WCI  22  
MONTROSE       LGT SNOW  26  23  88 NW10      29.79S FOG     WCI  16  
EAGLE          LGT SNOW  24  22  91 E3        29.76F VSB 1            
RIFLE          CLOUDY    28  15  58 W16       29.80S WCI  16          
DELTA          LGT SNOW  32  31  94 CALM      29.76S                  
NUCLA          LGT SNOW  28  25  86 NW13      29.80R WCI  18          
$$

COZ017>023-064>068-230500-
...SOUTHWEST COLORADO...
  
CITY           SKY/WX    TMP DP  RH WIND       PRES   REMARKS
DURANGO        CLOUDY    26  26 100 SW3       29.73R                  
CORTEZ         LGT SNOW  27  22  81 CALM      29.76R                  
PAGOSA SPRINGS LGT SNOW  26  26 100 CALM      29.71S                  
TELLURIDE      LGT SNOW  21  19  93 W10       29.67F WCI  10          
WOLF CREEK PAS   N/A     10   9  92 MISG      29.70F                  
$$

COZ009-010-012-014-032>034-037-058>063-230500-
...CENTRAL COLORADO...
  
CITY           SKY/WX    TMP DP  RH WIND       PRES   REMARKS
ASPEN          LGT SNOW  23  20  88 CALM      29.69F FOG              
BUENA VISTA    CLOUDY    26  19  74 NW7       29.68F WCI  18          
COPPER MTN     LGT SNOW  14   9  79 MISG      29.67S                  
BERTHOUD PASS  CLOUDY     7  -4  61 NW8       29.66S WCI  -6          
COTTONWOOD PAS CLOUDY    21  19  93 CALM      29.67S                  
GUNNISON       FLURRIES  23  22  96 CALM      29.70S                  
GRANBY         LGT SNOW  19  17  92 NW5       29.74R WCI  12          
KREMMLING      CLOUDY    21  18  86 CALM      29.78R                  
LEADVILLE      CLOUDY    16  12  84 NE7       29.64F WCI   6          
MONARCH PASS   CLOUDY    12   9  85 MISG      29.76R                  
SALIDA         CLOUDY    28  26  92 CALM      29.78S                  
SUNLIGHT       LGT SNOW  10   9  92 NW3       29.71F                  
WILKERSON PASS SNOW      18  14  86 NE6       29.68S VSB 1/2 WCI   9  
$$

COZ069>075-230500-
...SAN LUIS VALLEY/SANGRE DE CRISTO MOUNTAINS...
  
CITY           SKY/WX    TMP DP  RH WIND       PRES   REMARKS
ALAMOSA        CLOUDY    29  24  82 N15G22    29.66R WCI  18          
DEL NORTE      CLOUDY    26  21  82 W6        29.69R WCI  19          
LA VETA PASS   NOT AVBL                                               
SAGUACHE       CLOUDY    27  21  80 CALM      29.67R                  
$$

COZ035-036-038>040-230500-
...NORTHERN COLORADO FRONT RANGE...
  
CITY           SKY/WX    TMP DP  RH WIND       PRES   REMARKS
DENVER INTL AP SNOW      23  22  96 NW9       29.82R VSB 1/4 WCI  13  
AURORA         SNOW      22  22 100 NW6       29.80R VSB 1/2 WCI  14  
FRONT RANGE AP SNOW      25  23  93 CALM      29.82R VSB 1/4          
ERIE MUNI ARPT LGT SNOW  24  23  95 NW5       29.89R WCI  18          
BOULDER MUN AP LGT SNOW  25  23  93 CALM      29.81F                  
CENTENNIAL     SNOW      21  20  96 N8        29.78S VSB 1/2 WCI  11  
BROOMFIELD     FOG       23  21  93 NW6       29.81S VSB 3/4 WCI  16  
FORT COLLINS   FLURRIES  23  20  88 SW6       29.84R WCI  16          
LONGMONT       LGT SNOW  26  23  87 CALM      29.85S                  
$$

COZ041-046-047-076>085-087-088-230500-
...PIKES PEAK/PALMER DIVIDE AND SOUTHERN FOOTHILLS...
  
CITY           SKY/WX    TMP DP  RH WIND       PRES   REMARKS
COLO. SPRINGS  LGT SNOW  27  22  81 N14       29.73R WCI  16          
A. F. ACADEMY  LGT SNOW  22  19  90 N12       29.72R FOG     WCI  10  
SCHRIEVER AFB  NOT AVBL                                               
CHEYENNE MTN   SNOW      22  21  94 N14G20    29.65S VSB 1/2 WCI  10  
ELLICOTT       CLOUDY   N/A N/A N/A NE16      29.70S                  
FALCON         LGT SNOW  22  19  87 N16G25    29.71S WCI   8          
FORT CARSON    FLURRIES  27  24  89 N21G26    29.71R WCI  13          
LIMON          FRZ RAIN  24  24 100 N14       29.77S FOG     WCI  12  
MONUMENT HILL  LGT SNOW  19  18  93 N3        29.75S VSB 1            
CANON CITY     NOT AVBL                                               
WALSENBURG     NOT AVBL                                               
TRINIDAD       CLOUDY    38  29  70 S12       29.67F                  
$$

COZ042>045-048>051-090-091-230500-
...NORTHEAST COLORADO...
  
CITY           SKY/WX    TMP DP  RH WIND       PRES   REMARKS
GREELEY ARPT   LGT SNOW  25  23  92 CALM      29.84S FOG              
AKRON          FRZ RAIN  24  23  96 NE14      29.81R VSB 3/4 WCI  12  
BURLINGTON     CLOUDY    35  33  92 SE7       29.81S FOG     WCI  29  
WRAY           FOG       32  32 100 E6        29.85R VSB 1/4 WCI  26  
YUMA           MIX PCPN  30  30 100 N6        29.81F WCI  24          
STERLING       LGT SNOW N/A N/A N/A NE3       29.84S VSB 1            
HOLYOKE        CLOUDY    34  32  93 NE7       29.86R FOG     WCI  28  
FORT MORGAN    LGT SNOW  24  23  94 NE7       29.83S VSB 3/4 WCI  16  
$$

COZ086-089-092>099-230500-
...SOUTHEAST COLORADO...
  
CITY           SKY/WX    TMP DP  RH WIND       PRES   REMARKS
PUEBLO         CLOUDY    37  31  78 N21G26    29.68F                  
LA JUNTA       MOCLDY    41  33  73 SE14      29.69R                  
LAMAR          CLOUDY    38  35  89 SE16G28   29.71S                  
SPRINGFIELD      N/A     34  34 100 SE22G29   29.70F WCI  22          
$$